Location: Clermont
(50.2608°N, 4.3172°E)
Time: 08:07:57
(UTC+00:00)

Lacrosse 5 - Pass Details

Date: 13 August 2020
Orbit: 716 x 722 km, 57.0° (Epoch: 25 September)

Event Time Altitude Azimuth Distance (km) Brightness Sun altitude
Rises 20:34:53 0° 302° (WNW) 3,133 7.0 -12.9°
Reaches altitude 10° 20:37:17 10° 300° (WNW) 2,211 5.8 -13.2°
Maximum altitude 20:42:20 67° 219° (SW) 784 2.0 -13.8°
Enters shadow 20:45:37 22° 142° (SE) 1,560 3.0 -14.1°
